This is the latest recevied weather packets stored in our database for station/object W0AKY-13. If no packets are shown the sender has not sent any weather packets the latest 10 day(s).
| Time | Temp. | Humidity | Pressure | Rain* | Wind** | Luminosity | Snow |
|---|---|---|---|---|---|---|---|
| 1788646353 | 36.67° C | 58% | 1013.8 hPa | 0 mm | - | 220 W/m² | - |
| 1788646049 | 36.67° C | 59% | 1013.9 hPa | 0 mm | - | 232 W/m² | - |
| 1788645745 | 36.67° C | 58% | 1013.6 hPa | 0 mm | - | 247 W/m² | - |
| 1788645444 | 37.22° C | 56% | 1013.6 hPa | 0 mm | - | 255 W/m² | - |
| 1788645140 | 36.67° C | 57% | 1013.6 hPa | 0 mm | - | 267 W/m² | - |
| 1788644835 | 36.67° C | 61% | 1013.8 hPa | 0 mm | - | 278 W/m² | - |
| 1788644531 | 36.67° C | 59% | 1013.9 hPa | 0 mm | - | 291 W/m² | - |
| 1788644226 | 36.67° C | 57% | 1013.8 hPa | 0 mm | - | 301 W/m² | - |
| 1788643922 | 36.11° C | 57% | 1014.2 hPa | 0 mm | - | 314 W/m² | - |
| 1788643617 | 35.56° C | 58% | 1014.2 hPa | 0 mm | - | 326 W/m² | - |
| 1788643316 | 36.11° C | 58% | 1014.2 hPa | 0 mm | - | 333 W/m² | - |
| 1788643010 | 36.11° C | 57% | 1014.3 hPa | 0 mm | - | 346 W/m² | - |
| 1788642706 | 35.56° C | 61% | 1014.6 hPa | 0 mm | - | 353 W/m² | - |
| 1788642403 | 36.11° C | 58% | 1014.8 hPa | 0 mm | - | 364 W/m² | - |
| 1788642103 | 36.11° C | 60% | 1014.8 hPa | 0 mm | - | 378 W/m² | - |
| 1788641802 | 35.56° C | 59% | 1014.9 hPa | 0 mm | - | 387 W/m² | - |
| 1788641502 | 36.11° C | 60% | 1015 hPa | 0 mm | - | 397 W/m² | - |
| 1788641201 | 36.11° C | 59% | 1014.9 hPa | 0 mm | - | 408 W/m² | - |
| 1788640914 | 36.11° C | 59% | 1015.1 hPa | 0 mm | - | 418 W/m² | - |
| 1788640591 | 35.56° C | 60% | 1015 hPa | 0 mm | - | 429 W/m² | - |
| 1788640286 | 36.67° C | 57% | 1015.2 hPa | 0 mm | - | 438 W/m² | - |
| 1788639982 | 36.11° C | 58% | 1015.2 hPa | 0 mm | - | 449 W/m² | - |
| 1788639677 | 35° C | 60% | 1015.2 hPa | 0 mm | - | 456 W/m² | - |
| 1788639372 | 35.56° C | 61% | 1015.5 hPa | 0 mm | - | 461 W/m² | - |
| 1788639072 | 35.56° C | 58% | 1015.4 hPa | 0 mm | - | 471 W/m² | - |
* Rain latest hour (hover to see other rain measurements)
** Current wind speed in m/s (hover to see current wind gust speed)